Total_Precipitation_Accumulation
2.73 2.80 2.56 2.47 2.35 2.49 2.67 2.67 2.43 2.52 2.65 2.58 2.33 2.18 2.06 1.81 1.66 1.55 1.66 1.98 1.98 1.98 2.23 2.23 2.15 2.03 1.80 1.55 1.44 1.36 1.29 1.19 1.04 0.84 0.77 0.69 0.60 0.49 0.37 0.31 0.28 0.26 0.27
2.57 2.44 2.47 2.53 2.37 2.43 2.43 2.43 2.44 2.63 2.78 2.82 2.49 2.26 2.15 1.98 1.83 1.78 1.76 2.04 2.08 1.95 2.11 2.44 2.58 2.51 2.39 2.08 1.86 1.74 1.62 1.49 1.24 0.93 0.83 0.78 0.67 0.58 0.52 0.47 0.41 0.33 0.29
2.50 2.49 2.42 2.29 2.28 2.33 2.43 2.47 2.50 2.63 2.53 2.57 2.52 2.38 2.30 2.14 2.01 1.87 1.83 1.84 1.70 1.86 2.06 2.30 2.57 2.65 2.71 2.56 2.42 2.27 2.04 1.74 1.43 1.08 0.85 0.79 0.72 0.60 0.56 0.55 0.54 0.47 0.39
2.25 2.36 2.17 2.14 2.20 2.04 2.07 2.24 2.21 2.27 2.36 2.49 2.48 2.26 2.19 2.21 2.06 1.98 1.84 1.75 1.84 1.62 1.94 2.27 2.48 2.45 2.64 2.89 3.07 3.04 2.60 2.03 1.59 1.28 1.02 0.87 0.81 0.67 0.56 0.52 0.52 0.53 0.44
1.79 1.87 1.84 1.93 1.90 1.84 1.87 1.70 2.02 2.15 2.27 2.32 2.16 2.10 1.96 2.15 2.11 1.91 1.86 1.64 1.80 1.78 1.82 1.94 2.22 2.22 2.46 2.98 3.46 3.58 3.33 2.69 2.05 1.70 1.49 1.32 1.22 1.01 0.76 0.64 0.57 0.53 0.47
1.68 1.64 1.62 1.72 1.64 1.70 1.84 1.90 2.08 2.06 1.99 1.99 1.74 1.82 1.83 1.65 1.73 1.77 1.68 1.68 1.66 1.42 1.53 1.79 2.12 1.86 2.21 2.69 3.08 3.35 3.54 3.38 2.84 2.35 2.10 2.02 1.92 1.58 1.12 0.88 0.75 0.68 0.59
1.62 1.69 1.52 1.64 1.52 1.56 1.59 1.64 1.75 1.76 1.72 1.78 1.94 1.90 1.61 1.37 1.36 1.38 1.47 1.67 1.57 1.52 1.63 1.92 2.08 2.04 1.84 1.93 2.15 2.61 3.28 3.59 3.45 2.96 2.58 2.34 2.27 1.98 1.45 1.16 0.98 0.89 0.83
1.41 1.37 1.50 1.48 1.43 1.58 1.60 1.58 1.66 1.63 1.52 1.55 1.76 1.99 1.73 1.54 1.26 0.99 1.14 1.17 1.25 1.50 1.63 1.68 1.79 2.04 1.92 2.05 1.72 1.88 2.61 3.24 3.69 3.60 3.18 2.70 2.39 2.11 1.77 1.49 1.22 1.04 0.99
1.19 1.25 1.28 1.31 1.42 1.42 1.54 1.57 1.48 1.53 1.56 1.50 1.52 1.81 1.80 1.66 1.41 1.04 0.93 1.01 1.15 1.33 1.39 1.60 1.64 1.73 1.72 2.04 2.20 1.97 2.01 2.30 3.13 3.79 3.79 3.20 2.54 2.07 1.85 1.75 1.62 1.41 1.22
1.12 1.09 1.13 1.18 1.29 1.26 1.45 1.31 1.38 1.54 1.59 1.44 1.36 1.34 1.45 1.50 1.57 1.37 1.08 0.97 1.07 1.15 1.23 1.28 1.45 1.69 1.83 1.97 2.12 1.99 1.68 1.70 2.31 3.08 3.56 3.48 2.98 2.44 2.11 2.04 2.22 2.15 1.78
1.29 1.14 1.18 1.22 1.27 1.21 1.25 1.24 1.49 1.48 1.41 1.35 1.32 1.34 1.38 1.36 1.36 1.40 1.29 1.12 1.05 0.91 0.96 1.10 1.36 1.54 1.62 1.83 2.14 1.95 1.68 1.53 1.66 2.13 2.63 2.95 3.01 2.70 2.39 2.28 2.58 2.79 2.58
1.37 1.23 1.22 1.25 1.21 1.18 1.16 1.15 1.33 1.36 1.41 1.42 1.36 1.27 1.34 1.32 1.30 1.39 1.26 1.10 1.00 0.74 0.73 0.86 1.06 1.20 1.34 1.59 1.73 1.77 1.74 1.70 1.63 1.70 1.82 2.10 2.38 2.45 2.42 2.53 2.84 3.07 3.15
1.12 1.14 1.16 1.19 1.07 1.09 1.19 1.30 1.31 1.31 1.37 1.39 1.29 1.20 1.17 1.06 1.14 1.23 1.15 0.97 0.96 0.80 0.88 0.83 0.87 1.09 1.24 1.56 1.68 1.70 1.59 1.61 1.44 1.37 1.40 1.49 1.62 1.86 2.14 2.35 2.66 2.98 3.30
1.09 1.13 1.15 1.11 1.08 1.12 1.13 1.35 1.26 1.24 1.28 1.24 1.12 1.30 1.24 1.02 1.14 1.20 1.25 1.36 1.22 1.11 1.12 0.95 0.97 1.22 1.53 1.64 1.78 1.75 1.44 1.43 1.28 1.17 1.09 1.12 1.21 1.37 1.51 1.70 1.94 2.14 2.39
1.18 1.24 1.22 1.19 1.19 1.27 1.37 1.46 1.35 1.33 1.37 1.22 1.20 1.39 1.33 1.20 1.21 1.20 1.31 1.50 1.59 1.39 1.26 1.25 1.27 1.29 1.48 1.56 1.69 1.58 1.42 1.47 1.34 1.18 1.08 1.02 1.05 1.12 1.19 1.24 1.33 1.43 1.54
1.24 1.30 1.29 1.24 1.29 1.34 1.44 1.50 1.39 1.42 1.40 1.32 1.36 1.48 1.46 1.34 1.35 1.33 1.34 1.46 1.68 1.66 1.47 1.30 1.34 1.31 1.36 1.25 1.41 1.31 1.33 1.44 1.30 1.20 1.16 1.12 1.08 1.09 1.10 1.15 1.19 1.17 1.18
1.31 1.30 1.29 1.28 1.27 1.33 1.40 1.46 1.38 1.38 1.34 1.36 1.36 1.39 1.39 1.48 1.53 1.51 1.60 1.62 1.68 1.81 1.67 1.38 1.42 1.53 1.51 1.36 1.31 1.28 1.25 1.25 1.22 1.25 1.19 1.16 1.11 1.05 0.99 0.96 1.00 1.03 1.01
1.26 1.31 1.34 1.28 1.19 1.26 1.38 1.40 1.34 1.37 1.39 1.35 1.41 1.55 1.48 1.52 1.59 1.63 1.77 1.73 1.77 2.00 1.97 1.73 1.68 1.75 1.63 1.54 1.45 1.36 1.20 1.14 1.15 1.27 1.19 1.12 1.05 0.98 0.93 0.89 0.87 0.86 0.86
1.35 1.31 1.28 1.19 1.18 1.21 1.27 1.31 1.39 1.50 1.54 1.55 1.60 1.67 1.69 1.81 1.74 1.76 1.81 1.80 1.86 2.08 2.25 2.08 1.95 2.02 1.97 1.73 1.61 1.41 1.27 1.28 1.13 1.17 1.21 1.14 1.08 1.02 0.96 0.96 0.95 0.90 0.82
1.42 1.43 1.42 1.44 1.45 1.40 1.38 1.42 1.52 1.58 1.60 1.65 1.77 1.78 1.79 1.82 1.86 1.94 1.95 2.04 2.17 2.35 2.50 2.40 2.31 2.35 2.34 2.16 1.93 1.60 1.49 1.41 1.29 1.16 1.24 1.22 1.18 1.12 1.04 0.96 0.92 0.91 0.88
1.67 1.78 1.75 1.72 1.74 1.70 1.55 1.62 1.69 1.65 1.75 1.68 1.74 1.78 1.74 1.77 1.82 1.90 1.88 2.04 2.30 2.51 2.66 2.70 2.67 2.80 2.70 2.52 2.22 1.87 1.78 1.69 1.56 1.36 1.27 1.16 1.13 1.07 1.05 1.03 0.99 0.96 0.94
1.87 1.92 1.86 1.85 1.84 1.63 1.74 1.79 1.76 1.80 1.84 1.80 1.81 1.82 1.76 1.70 1.66 1.68 1.75 1.86 2.02 2.23 2.48 2.68 2.75 2.83 2.86 2.71 2.51 2.26 1.93 1.68 1.54 1.41 1.40 1.31 1.19 1.14 1.05 0.98 1.07 1.04 0.98
1.78 1.84 1.86 1.87 1.78 1.74 1.73 1.60 1.60 1.59 1.68 1.74 1.76 1.75 1.60 1.49 1.51 1.45 1.57 1.62 1.62 1.71 1.84 2.10 2.31 2.37 2.54 2.63 2.53 2.20 1.90 1.65 1.46 1.43 1.45 1.37 1.28 1.19 1.09 1.07 1.16 1.03 0.97
2.06 2.06 1.97 1.92 1.92 1.82 1.70 1.54 1.54 1.42 1.44 1.48 1.51 1.55 1.56 1.47 1.47 1.52 1.52 1.44 1.31 1.32 1.41 1.44 1.56 1.81 2.06 2.34 2.40 2.28 2.19 1.91 1.62 1.41 1.35 1.31 1.19 1.12 1.07 1.05 1.14 1.06 0.99
2.18 2.15 2.12 2.15 2.18 2.16 2.05 1.75 1.61 1.49 1.54 1.54 1.53 1.54 1.54 1.43 1.49 1.42 1.37 1.36 1.28 1.23 1.25 1.29 1.35 1.55 1.81 2.02 2.20 2.19 2.11 1.99 1.75 1.46 1.32 1.29 1.19 1.16 1.15 1.07 1.05 1.07 1.00
2.07 2.07 2.02 2.09 2.08 2.10 2.15 1.84 1.60 1.43 1.48 1.50 1.56 1.57 1.60 1.47 1.52 1.45 1.41 1.44 1.34 1.26 1.24 1.23 1.25 1.32 1.39 1.64 1.89 1.89 1.85 1.87 1.74 1.53 1.28 1.26 1.21 1.21 1.24 1.04 0.88 0.86 0.87